This is the latest recevied weather packets stored in our database for station/object N1SU-13. If no packets are shown the sender has not sent any weather packets the latest 10 day(s).
| Time | Temp. | Humidity | Pressure | Rain* | Wind** | Luminosity | Snow |
|---|---|---|---|---|---|---|---|
| 1777671660 | 21.67° C | 50% | 1013.2 hPa | - | - | - | - |
| 1777671081 | 21.67° C | 51% | 1013.2 hPa | - | - | - | - |
| 1777670495 | 21.67° C | 51% | 1013.4 hPa | - | - | - | - |
| 1777669927 | 21.11° C | 51% | 1013.2 hPa | - | - | - | - |
| 1777669435 | 21.11° C | 51% | 1013.6 hPa | - | - | - | - |
| 1777669343 | 21.11° C | 51% | - | - | - | - | - |
| 1777668713 | 21.11° C | 51% | 1013.4 hPa | - | - | - | - |
| 1777668020 | 21.11° C | 50% | 1013.4 hPa | - | - | - | - |
| 1777667360 | 20.56° C | 49% | 1013.5 hPa | - | - | - | - |
| 1777666670 | 20.56° C | 52% | 1013.6 hPa | - | - | - | - |
| 1777666019 | 20° C | 51% | 1013.8 hPa | - | - | - | - |
| 1777665324 | 20° C | 53% | 1013.8 hPa | - | - | - | - |
| 1777664682 | 19.44° C | 56% | 1014 hPa | - | - | - | - |
| 1777664092 | 19.44° C | 55% | 1014 hPa | - | - | - | - |
| 1777663436 | 18.89° C | 57% | 1014.1 hPa | - | - | - | - |
| 1777662835 | 18.89° C | 57% | 1014.2 hPa | - | - | - | - |
| 1777662137 | 18.33° C | 59% | 1014.3 hPa | - | - | - | - |
| 1777661561 | 18.33° C | 59% | 1014.4 hPa | - | - | - | - |
| 1777660901 | 17.78° C | 59% | 1014.5 hPa | - | - | - | - |
| 1777660330 | 17.78° C | 61% | 1014.7 hPa | - | - | - | - |
| 1777659635 | 17.22° C | 61% | 1014.8 hPa | - | - | - | - |
| 1777658987 | 16.67° C | 62% | 1014.9 hPa | - | - | - | - |
| 1777658311 | 16.67° C | 61% | 1015 hPa | - | - | - | - |
| 1777657710 | 16.11° C | 62% | 1015.2 hPa | - | - | - | - |
| 1777657031 | 15.56° C | 64% | 1015.3 hPa | - | - | - | - |
* Rain since midnight (hover to see other rain measurements)
** Current wind speed in m/s (hover to see current wind gust speed)